| time (UTC) | temp F | wind direction | speed MPH | gust MPH | rain 1hr in | rain 24hr in | rain mn in | humidity % | barometer mb |
| 20260509093059 | 45 | 208 | 0.0 | 4.0 | 0.00 | 0.00 | 0.00 | 80 | 1005.0 |
| 20260509091557 | 44 | 139 | 0.0 | 2.0 | 0.00 | 0.00 | 0.00 | 83 | 1004.9 |
| 20260509090059 | 43 | 132 | 0.0 | 2.0 | 0.00 | 0.00 | 0.00 | 88 | 1004.9 |
| 20260509084600 | 44 | 139 | 0.0 | 1.0 | 0.00 | 0.00 | 0.00 | 89 | 1005.1 |
| 20260509083105 | 44 | 147 | 0.0 | 2.0 | 0.00 | 0.00 | 0.00 | 90 | 1005.1 |
| 20260509081549 | 44 | 138 | 0.0 | 1.0 | 0.00 | 0.00 | 0.00 | 91 | 1005.1 |
| 20260509080051 | 45 | 136 | 0.0 | 2.0 | 0.00 | 0.00 | 0.00 | 91 | 1005.2 |
| 20260509074607 | 44 | 148 | 0.0 | 3.0 | 0.00 | 0.00 | 0.00 | 92 | 1005.3 |
| 20260509073102 | 44 | 134 | 0.0 | 2.0 | 0.00 | 0.00 | 0.00 | 93 | 1005.2 |
| 20260509071552 | 44 | 146 | 0.0 | 2.0 | 0.00 | 0.00 | 0.00 | 93 | 1005.4 |
| 20260509070047 | 45 | 131 | 0.0 | 2.0 | 0.00 | 0.00 | 0.00 | 93 | 1005.5 |
| 20260509064540 | 45 | 138 | 0.0 | 2.0 | 0.00 | 0.00 | 0.00 | 93 | 1005.6 |
| 20260509063053 | 45 | 139 | 0.0 | 3.0 | 0.00 | 0.00 | 0.00 | 92 | 1005.8 |
| 20260509061537 | 45 | 131 | 0.0 | 4.0 | 0.00 | 0.00 | 0.00 | 92 | 1006.0 |
| 20260509060039 | 45 | 139 | 0.0 | 2.0 | 0.00 | 0.00 | 0.00 | 91 | 1006.2 |
| 20260509054535 | 46 | 152 | 0.0 | 6.0 | 0.00 | 0.00 | 0.00 | 91 | 1006.3 |
| 20260509053047 | 46 | 145 | 0.0 | 3.0 | 0.00 | 0.00 | 0.00 | 90 | 1006.4 |
| 20260509051527 | 46 | 142 | 0.0 | 2.0 | 0.00 | 0.00 | 0.00 | 89 | 1006.5 |
| 20260509050024 | 46 | 142 | 0.0 | 1.0 | 0.00 | 0.00 | 0.00 | 89 | 1006.7 |
| 20260509044521 | 46 | 159 | 0.0 | 2.0 | 0.00 | 0.00 | 0.00 | 88 | 1006.8 |
| 20260509043037 | 47 | 146 | 0.0 | 5.0 | 0.00 | 0.00 | 0.00 | 87 | 1006.8 |
| 20260509041517 | 47 | 142 | 0.0 | 2.0 | 0.00 | 0.00 | 0.00 | 86 | 1007.1 |
| 20260509040013 | 48 | 231 | 0.0 | 2.0 | 0.00 | 0.00 | 0.00 | 85 | 1007.3 |
| 20260509034513 | 48 | 143 | 0.0 | 4.0 | 0.00 | 0.00 | 0.00 | 84 | 1007.4 |
| 20260509033011 | 49 | 148 | 0.0 | 2.0 | 0.00 | 0.00 | 0.00 | 83 | 1007.5 |
| 20260509031513 | 49 | 169 | 0.0 | 4.0 | 0.00 | 0.00 | 0.00 | 82 | 1007.6 |
| 20260509030010 | 49 | 102 | 0.0 | 2.0 | 0.00 | 0.00 | 0.00 | 82 | 1007.8 |
| 20260509024510 | 49 | 197 | 0.0 | 1.0 | 0.00 | 0.00 | 0.00 | 80 | 1008.1 |
| 20260509023009 | 49 | 141 | 0.0 | 2.0 | 0.00 | 0.00 | 0.00 | 77 | 1008.0 |
| 20260509021509 | 49 | 186 | 0.0 | 4.0 | 0.00 | 0.00 | 0.00 | 73 | 1008.0 |
| 20260509020008 | 49 | 177 | 0.0 | 4.0 | 0.00 | 0.00 | 0.00 | 70 | 1007.9 |
| 20260509014518 | 50 | 155 | 0.0 | 1.0 | 0.00 | 0.00 | 0.00 | 68 | 1007.8 |
| 20260509013006 | 51 | 130 | 0.0 | 2.0 | 0.00 | 0.00 | 0.00 | 65 | 1007.7 |
| 20260509011506 | 52 | 140 | 0.0 | 2.0 | 0.00 | 0.00 | 0.00 | 64 | 1007.6 |
| 20260509010005 | 53 | 180 | 0.0 | 1.0 | 0.00 | 0.00 | 0.00 | 62 | 1007.5 |
| 20260509004504 | 54 | 156 | 1.0 | 5.0 | 0.00 | 0.00 | 0.00 | 61 | 1007.4 |
| 20260509003004 | 55 | 191 | 0.0 | 4.0 | 0.00 | 0.00 | 0.00 | 59 | 1007.3 |
| 20260509001507 | 56 | 257 | 0.0 | 4.0 | 0.00 | 0.00 | 0.00 | 58 | 1007.2 |
| 20260509000003 | 58 | 143 | 0.0 | 4.0 | 0.00 | 0.00 | 0.00 | 56 | 1007.2 |
| 20260508234502 | 59 | 63 | 0.0 | 2.0 | 0.00 | 0.00 | 0.00 | 54 | 1007.3 |
| 20260508233002 | 58 | 136 | 1.0 | 5.0 | 0.00 | 0.00 | 0.00 | 55 | 1007.2 |
| 20260508231502 | 58 | 71 | 1.0 | 4.0 | 0.00 | 0.00 | 0.00 | 53 | 1007.2 |
| 20260508230002 | 61 | 245 | 1.0 | 5.0 | 0.00 | 0.00 | 0.00 | 50 | 1007.2 |
| 20260508224558 | 59 | 219 | 1.0 | 9.0 | 0.00 | 0.00 | 0.00 | 53 | 1007.3 |
| 20260508223053 | 55 | 47 | 3.0 | 4.0 | 0.00 | 0.00 | 0.00 | 63 | 1007.5 |
| 20260508221555 | 55 | 352 | 3.0 | 5.0 | 0.00 | 0.00 | 0.00 | 56 | 1007.6 |
| 20260508220053 | 55 | 316 | 4.0 | 7.0 | 0.00 | 0.00 | 0.00 | 53 | 1007.5 |
| 20260508214549 | 55 | 40 | 6.0 | 7.0 | 0.00 | 0.00 | 0.00 | 56 | 1007.6 |
| 20260508213048 | 55 | 46 | 5.0 | 6.0 | 0.00 | 0.00 | 0.00 | 53 | 1007.8 |
| 20260508211543 | 54 | 33 | 5.0 | 6.0 | 0.00 | 0.00 | 0.00 | 47 | 1007.8 |
| 20260508210041 | 54 | 36 | 6.0 | 6.0 | 0.00 | 0.00 | 0.00 | 46 | 1007.9 |
| 20260508204539 | 54 | 34 | 5.0 | 7.0 | 0.00 | 0.00 | 0.00 | 51 | 1008.2 |
| 20260508203037 | 53 | 37 | 7.0 | 8.0 | 0.00 | 0.00 | 0.00 | 45 | 1008.4 |
| 20260508201533 | 53 | 23 | 6.0 | 7.0 | 0.00 | 0.00 | 0.00 | 53 | 1008.6 |
| 20260508200032 | 52 | 23 | 6.0 | 7.0 | 0.00 | 0.00 | 0.00 | 54 | 1008.8 |
| 20260508194528 | 52 | 29 | 7.0 | 8.0 | 0.00 | 0.00 | 0.00 | 54 | 1009.0 |
| 20260508193024 | 52 | 34 | 6.0 | 7.0 | 0.00 | 0.00 | 0.00 | 58 | 1009.3 |
| 20260508191521 | 52 | 41 | 6.0 | 7.0 | 0.00 | 0.00 | 0.00 | 59 | 1009.6 |
| 20260508190020 | 51 | 37 | 7.0 | 8.0 | 0.00 | 0.00 | 0.00 | 58 | 1009.7 |
| 20260508184521 | 51 | 29 | 4.0 | 5.0 | 0.00 | 0.00 | 0.00 | 60 | 1010.0 |
| 20260508183014 | 50 | 41 | 3.0 | 5.0 | 0.00 | 0.00 | 0.00 | 60 | 1010.2 |
| 20260508181511 | 50 | 359 | 2.0 | 3.0 | 0.00 | 0.00 | 0.00 | 63 | 1010.6 |
| 20260508180008 | 49 | 1 | 2.0 | 3.0 | 0.00 | 0.00 | 0.00 | 66 | 1010.7 |
| 20260508174505 | 49 | 20 | 2.0 | 4.0 | 0.00 | 0.00 | 0.00 | 66 | 1010.9 |
| 20260508173003 | 49 | 349 | 2.0 | 3.0 | 0.00 | 0.00 | 0.00 | 68 | 1011.2 |
| 20260508171501 | 48 | 329 | 2.0 | 5.0 | 0.00 | 0.00 | 0.00 | 69 | 1011.3 |
| 20260508164558 | 47 | 312 | 4.0 | 5.0 | 0.00 | 0.00 | 0.00 | 70 | 1011.4 |
| 20260508163107 | 47 | 315 | 3.0 | 5.0 | 0.00 | 0.00 | 0.00 | 72 | 1011.4 |
| 20260508161559 | 47 | 306 | 2.0 | 5.0 | 0.00 | 0.00 | 0.00 | 71 | 1011.5 |
| 20260508160057 | 47 | 305 | 4.0 | 6.0 | 0.00 | 0.00 | 0.00 | 72 | 1011.7 |
| 20260508154555 | 46 | 298 | 4.0 | 6.0 | 0.00 | 0.00 | 0.00 | 72 | 1011.8 |
| 20260508153104 | 47 | 277 | 4.0 | 6.0 | 0.00 | 0.00 | 0.00 | 73 | 1011.7 |
| 20260508151552 | 47 | 277 | 3.0 | 5.0 | 0.00 | 0.00 | 0.00 | 73 | 1011.7 |
| 20260508150050 | 46 | 274 | 3.0 | 5.0 | 0.00 | 0.00 | 0.00 | 74 | 1011.8 |
| 20260508144650 | 46 | 274 | 4.0 | 6.0 | 0.00 | 0.00 | 0.00 | 72 | 1011.8 |
| 20260508143110 | 46 | 250 | 6.0 | 8.0 | 0.00 | 0.00 | 0.00 | 74 | 1011.9 |
| 20260508141556 | 45 | 259 | 8.0 | 10.0 | 0.00 | 0.00 | 0.00 | 75 | 1012.0 |
| 20260508140051 | 45 | 259 | 7.0 | 9.0 | 0.00 | 0.00 | 0.00 | 79 | 1011.9 |
| 20260508134547 | 45 | 252 | 8.0 | 11.0 | 0.00 | 0.00 | 0.00 | 79 | 1012.0 |
| 20260508133048 | 45 | 259 | 6.0 | 8.0 | 0.00 | 0.00 | 0.00 | 77 | 1012.0 |
| 20260508131546 | 45 | 248 | 8.0 | 9.0 | 0.00 | 0.00 | 0.00 | 79 | 1011.9 |
| 20260508130045 | 45 | 252 | 7.0 | 9.0 | 0.00 | 0.00 | 0.00 | 79 | 1011.8 |
| 20260508124544 | 45 | 239 | 6.0 | 8.0 | 0.00 | 0.00 | 0.00 | 76 | 1011.7 |
| 20260508123047 | 44 | 270 | 5.0 | 7.0 | 0.00 | 0.00 | 0.00 | 78 | 1011.4 |
| 20260508121546 | 44 | 234 | 3.0 | 5.0 | 0.00 | 0.00 | 0.00 | 86 | 1011.4 |
| 20260508120042 | 43 | 249 | 3.0 | 5.0 | 0.00 | 0.00 | 0.00 | 85 | 1011.3 |
| 20260508114541 | 41 | 232 | 1.0 | 2.0 | 0.00 | 0.00 | 0.00 | 86 | 1011.2 |
| 20260508113041 | 40 | 143 | 0.0 | 1.0 | 0.00 | 0.00 | 0.00 | 86 | 1011.3 |
| 20260508111542 | 39 | 118 | 0.0 | 2.0 | 0.00 | 0.00 | 0.00 | 88 | 1011.1 |
| 20260508110038 | 39 | 136 | 1.0 | 5.0 | 0.00 | 0.00 | 0.00 | 87 | 1011.1 |
| 20260508104537 | 39 | 141 | 0.0 | 2.0 | 0.00 | 0.00 | 0.00 | 87 | 1011.0 |
| 20260508103042 | 40 | 125 | 1.0 | 4.0 | 0.00 | 0.00 | 0.00 | 84 | 1011.0 |
| 20260508101532 | 41 | 160 | 3.0 | 6.0 | 0.00 | 0.00 | 0.00 | 85 | 1011.0 |
| 20260508100039 | 40 | 245 | 2.0 | 6.0 | 0.00 | 0.00 | 0.00 | 86 | 1010.9 |
| 20260508094528 | 40 | 232 | 1.0 | 6.0 | 0.00 | 0.00 | 0.00 | 86 | 1011.0 |